Probability
26 10 10 6 0 0 0 0 0 0 0 0 0 3 3 0 0 0 0 0 0 3 6 42 65 65 65 68 71 65 68 68 68 61 61 68 65 71 68 65 65 68 65 61 52 48 58 58 55
13 16 6 0 0 0 0 0 0 0 0 0 0 6 3 0 0 0 0 0 3 10 13 29 65 65 65 58 58 58 68 65 65 71 65 68 71 65 68 58 61 61 68 58 52 52 52 55 55
13 16 6 3 0 0 0 0 0 0 3 6 6 3 3 3 0 0 0 0 3 6 10 26 68 58 55 52 55 55 65 71 58 58 58 58 65 68 65 61 58 58 45 52 52 52 42 45 42
19 10 3 3 0 0 0 0 0 0 0 3 3 3 3 0 0 0 0 3 6 6 6 39 65 61 58 58 55 61 55 61 61 61 65 65 61 58 55 58 61 52 42 39 48 55 45 32 42
3 3 3 0 0 0 0 0 0 0 3 3 3 3 3 0 0 3 0 0 6 6 6 39 52 58 55 55 58 58 55 52 55 61 61 65 65 74 61 61 61 52 42 39 35 45 42 45 32
3 0 0 0 0 0 0 0 0 0 3 3 3 3 0 0 0 3 3 0 3 10 10 23 55 61 52 55 58 55 55 55 58 58 65 65 74 61 68 58 52 52 42 48 52 48 58 45 42
0 0 3 0 0 0 0 0 0 0 0 0 3 0 0 0 0 3 3 0 3 6 16 23 29 32 52 48 52 58 58 58 58 55 61 61 58 52 48 58 61 55 48 42 45 48 58 45 52
3 0 0 0 0 0 0 0 0 3 0 3 0 0 0 0 3 3 0 0 3 3 13 16 19 19 23 26 45 48 55 55 52 48 48 45 45 45 42 52 55 58 55 55 61 55 42 48 48
6 0 0 0 0 0 0 0 0 0 3 6 3 3 3 6 6 3 0 0 3 3 10 13 13 13 13 16 23 32 39 52 45 35 52 42 23 19 26 23 45 45 52 48 52 48 45 45 42
6 3 0 0 0 0 0 0 0 0 0 0 3 6 6 6 6 0 0 0 0 3 10 10 13 13 13 16 16 19 19 13 13 10 16 10 6 6 13 26 39 35 42 45 55 48 42 39 26
3 3 0 0 0 0 0 0 0 0 0 0 3 3 6 6 3 6 0 0 0 0 10 10 6 6 10 10 10 6 6 6 6 3 6 3 3 6 6 6 6 19 16 13 13 23 19 16 19
0 0 0 0 0 0 0 0 0 0 0 0 3 3 3 6 3 3 0 0 0 0 10 10 6 3 3 10 6 10 10 6 6 6 3 3 3 3 3 3 3 3 3 6 6 10 10 10 6
0 0 0 0 0 0 0 0 0 0 0 3 3 6 6 6 6 3 3 0 0 0 3 6 6 6 6 6 6 10 10 10 10 10 6 3 3 3 3 3 3 3 3 3 3 6 6 3 6
0 0 0 0 0 0 0 0 0 0 0 3 3 6 6 6 6 6 6 3 3 3 3 3 6 6 6 6 6 6 6 10 10 10 6 3 0 3 3 3 3 3 3 3 3 3 3 3 3
0 0 0 0 0 0 0 0 0 0 0 3 3 3 6 6 6 6 6 3 3 3 6 6 6 6 6 6 6 6 6 6 6 6 3 0 0 3 6 3 3 3 3 3 3 3 3 3 3
0 0 0 0 0 0 0 0 0 0 0 3 3 3 3 6 6 6 6 3 3 3 6 6 13 6 3 3 3 3 3 3 6 6 3 3 3 6 3 3 3 3 3 3 3 3 3 3 3
0 0 0 0 0 0 0 0 0 0 0 0 3 3 3 3 3 6 6 6 6 3 3 6 6 3 3 3 3 3 3 3 3 6 6 3 6 3 3 0 3 3 3 3 3 3 3 3 6
0 0 0 0 0 0 0 0 0 0 0 0 0 3 3 3 3 6 10 10 10 3 3 6 0 0 3 6 6 3 3 3 3 3 3 3 3 3 3 6 6 3 3 3 3 6 6 6 6
0 0 0 0 0 0 0 0 0 0 0 0 0 3 0 3 3 6 6 10 6 3 6 6 3 6 6 6 6 3 3 3 3 3 3 3 3 10 6 6 3 3 3 3 6 10 6 6 6
0 0 0 0 0 0 0 0 0 0 0 0 3 6 6 6 3 6 10 6 6 13 10 10 6 3 6 6 6 3 3 3 0 0 6 3 6 6 6 0 0 0 3 3 3 6 6 6 6
0 0 0 0 0 0 0 0 0 0 0 3 3 0 3 0 3 6 10 10 6 10 10 13 3 10 10 6 3 6 10 10 10 6 6 3 6 6 3 3 3 6 6 6 6 6 6 6 6
0 0 0 0 0 0 0 0 0 0 3 3 0 6 3 3 3 3 10 10 6 6 6 10 6 6 10 6 6 6 6 6 3 0 3 3 0 0 3 3 6 6 6 6 6 6 6 6 6
0 0 0 0 0 0 0 0 0 0 0 3 3 6 6 3 10 6 3 10 10 10 10 10 13 6 3 6 6 6 6 3 0 0 6 10 10 13 13 6 6 6 6 6 6 10 10 6 6
0 0 0 0 0 0 0 0 0 0 0 0 3 6 6 3 6 13 13 6 13 13 16 10 10 10 6 10 10 6 6 10 10 10 13 13 13 13 13 16 13 10 6 6 10 10 10 10 10
0 0 0 0 0 0 0 0 0 3 0 3 3 6 6 3 3 3 6 10 10 13 13 16 10 10 13 10 16 13 10 13 13 13 10 13 13 13 13 13 13 13 13 13 13 13 13 13 13
0 0 0 0 0 0 0 0 0 3 3 3 3 6 3 3 6 6 10 10 10 10 10 13 10 6 10 16 10 6 6 6 6 6 6 6 10 10 10 16 13 16 13 16 19 19 19 13 16
0 0 0 0 0 0 0 3 3 3 3 3 6 6 3 3 6 6 13 13 13 10 10 10 6 6 6 13 13 13 10 6 6 6 6 13 10 6 6 10 10 10 13 19 19 19 19 16 16
0 0 0 0 0 0 0 0 0 3 3 3 6 6 3 3 6 6 6 10 13 16 6 6 10 10 13 13 13 13 13 13 10 10 13 16 16 16 16 16 16 16 16 19 16 16 23 19 19
0 0 0 0 0 0 0 0 0 0 3 6 10 10 6 3 6 6 3 6 10 13 10 6 10 10 10 13 13 16 16 19 19 16 13 16 16 19 19 16 13 10 13 10 10 16 19 23 23
0 0 0 0 0 0 0 0 3 3 6 10 10 13 13 10 13 13 6 6 6 13 10 10 10 13 19 16 16 13 13 16 19 19 19 13 13 16 16 13 10 10 13 13 13 13 16 16 16
Height
5876 5876 5876 5876 5875 5873 5872 5871 5871 5870 5870 5869 5869 5868 5868 5868 5868 5870 5868 5866 5866 5866 5865 5865 5864 5864 5864 5864 5864 5865 5865 5866 5867 5868 5869 5872 5873 5875 5876 5876 5878 5879 5880 5881 5882 5883 5884 5885 5886
5878 5878 5878 5878 5876 5875 5874 5873 5872 5872 5871 5870 5870 5870 5869 5869 5868 5868 5867 5867 5867 5867 5866 5866 5865 5865 5865 5865 5865 5865 5866 5867 5868 5869 5871 5873 5874 5876 5877 5877 5879 5881 5882 5883 5884 5884 5885 5886 5887
5880 5880 5880 5879 5878 5877 5876 5875 5874 5874 5873 5872 5872 5871 5871 5870 5869 5868 5868 5868 5868 5867 5867 5866 5866 5866 5866 5866 5866 5867 5867 5868 5869 5871 5872 5874 5875 5877 5878 5879 5881 5882 5883 5884 5885 5885 5886 5886 5887
5883 5883 5883 5881 5880 5879 5878 5877 5876 5876 5875 5874 5874 5873 5872 5871 5870 5870 5869 5869 5869 5869 5868 5868 5867 5867 5867 5867 5868 5868 5869 5870 5870 5872 5873 5875 5876 5878 5879 5880 5881 5883 5884 5885 5886 5887 5887 5887 5888
5885 5884 5884 5883 5882 5881 5880 5879 5878 5877 5877 5876 5875 5874 5873 5872 5871 5871 5870 5870 5870 5870 5870 5869 5869 5869 5869 5869 5869 5870 5870 5871 5872 5873 5874 5876 5877 5878 5880 5881 5883 5884 5885 5885 5887 5888 5888 5888 5889
5887 5886 5886 5885 5884 5883 5882 5881 5880 5879 5878 5877 5877 5876 5875 5874 5873 5872 5872 5871 5871 5871 5871 5871 5871 5871 5870 5870 5870 5871 5872 5873 5873 5874 5875 5876 5878 5879 5880 5881 5883 5884 5885 5886 5887 5888 5888 5889 5890
5889 5888 5888 5887 5886 5885 5884 5883 5882 5881 5880 5879 5879 5878 5876 5876 5875 5874 5874 5873 5873 5873 5872 5872 5872 5872 5871 5871 5871 5873 5874 5874 5875 5875 5876 5877 5879 5880 5881 5883 5883 5885 5886 5887 5888 5888 5889 5890 5890
5891 5891 5890 5889 5888 5887 5886 5884 5884 5883 5882 5881 5880 5879 5878 5878 5877 5876 5875 5875 5874 5874 5874 5874 5874 5874 5873 5873 5873 5874 5875 5875 5876 5876 5877 5878 5879 5881 5882 5883 5884 5885 5886 5887 5888 5889 5890 5890 5890
5892 5893 5891 5891 5890 5889 5888 5887 5886 5885 5884 5883 5882 5881 5880 5879 5878 5878 5877 5877 5876 5876 5876 5875 5875 5875 5875 5875 5875 5876 5876 5877 5877 5878 5879 5879 5880 5882 5883 5884 5885 5886 5887 5888 5889 5889 5890 5890 5890
5894 5894 5894 5893 5892 5891 5890 5889 5888 5887 5886 5885 5884 5883 5882 5881 5880 5880 5879 5879 5878 5878 5877 5877 5877 5877 5877 5877 5877 5877 5878 5878 5879 5879 5880 5881 5881 5882 5883 5884 5885 5886 5887 5888 5888 5889 5889 5890 5890
5895 5896 5895 5895 5894 5893 5892 5891 5890 5889 5888 5887 5885 5884 5883 5882 5882 5882 5881 5880 5880 5880 5879 5879 5878 5878 5878 5878 5879 5879 5879 5880 5880 5881 5881 5882 5882 5883 5884 5885 5886 5886 5887 5888 5888 5889 5889 5890 5890
5897 5897 5896 5896 5895 5895 5894 5893 5892 5891 5890 5889 5887 5886 5885 5884 5884 5883 5883 5882 5882 5881 5881 5881 5881 5880 5880 5880 5880 5880 5881 5881 5881 5882 5882 5883 5883 5884 5885 5885 5886 5886 5887 5887 5888 5888 5888 5889 5889
5898 5898 5898 5897 5896 5896 5895 5894 5893 5892 5892 5891 5889 5888 5888 5887 5886 5886 5885 5885 5884 5883 5883 5883 5883 5882 5882 5882 5882 5882 5882 5882 5882 5882 5883 5883 5884 5884 5885 5885 5885 5886 5886 5886 5887 5887 5888 5888 5888
5899 5899 5899 5898 5897 5897 5896 5896 5895 5894 5893 5892 5892 5891 5890 5889 5888 5888 5887 5886 5886 5885 5885 5885 5884 5884 5884 5884 5883 5883 5883 5883 5883 5883 5883 5884 5884 5884 5884 5884 5885 5885 5885 5886 5886 5886 5886 5887 5886
5899 5900 5900 5899 5898 5898 5898 5898 5897 5896 5895 5894 5893 5893 5892 5891 5890 5889 5889 5888 5888 5887 5887 5886 5886 5886 5885 5885 5884 5884 5884 5884 5883 5883 5884 5884 5884 5884 5884 5884 5884 5884 5884 5885 5885 5885 5885 5885 5885
5900 5900 5900 5900 5899 5899 5900 5899 5898 5897 5896 5896 5895 5894 5893 5892 5892 5891 5890 5890 5889 5889 5888 5888 5888 5887 5886 5886 5885 5885 5885 5885 5885 5884 5884 5884 5884 5884 5884 5884 5884 5884 5883 5883 5884 5883 5883 5884 5884
5900 5900 5900 5900 5899 5899 5900 5899 5899 5898 5898 5897 5896 5895 5895 5894 5893 5893 5892 5891 5891 5890 5890 5889 5889 5888 5888 5887 5887 5886 5886 5886 5885 5885 5884 5884 5884 5883 5883 5883 5883 5883 5883 5882 5882 5882 5882 5882 5882
5900 5900 5900 5900 5899 5899 5899 5899 5899 5899 5899 5898 5897 5896 5896 5895 5894 5894 5893 5893 5892 5892 5891 5891 5890 5890 5889 5889 5888 5888 5887 5886 5886 5885 5885 5884 5884 5883 5883 5882 5882 5882 5882 5882 5882 5882 5881 5881 5881
5899 5899 5900 5900 5899 5899 5899 5899 5899 5899 5899 5898 5898 5897 5896 5895 5895 5894 5894 5893 5893 5893 5892 5892 5891 5891 5890 5889 5889 5888 5888 5887 5887 5886 5885 5884 5884 5883 5883 5882 5882 5882 5881 5881 5881 5881 5880 5880 5879
5898 5898 5899 5899 5899 5899 5899 5899 5899 5899 5898 5898 5898 5897 5896 5895 5895 5895 5894 5894 5894 5893 5893 5893 5892 5892 5891 5890 5890 5889 5888 5888 5887 5886 5885 5884 5884 5883 5883 5882 5882 5881 5881 5880 5880 5880 5879 5878 5878
5896 5897 5898 5898 5898 5898 5898 5899 5899 5898 5898 5898 5897 5897 5896 5895 5895 5895 5895 5895 5894 5894 5894 5893 5892 5892 5891 5891 5890 5889 5889 5888 5887 5886 5885 5884 5883 5883 5882 5882 5881 5880 5880 5879 5879 5878 5877 5877 5876
5894 5895 5896 5896 5896 5896 5897 5897 5898 5898 5897 5897 5897 5896 5896 5895 5895 5895 5895 5895 5895 5894 5894 5893 5893 5892 5891 5891 5890 5889 5889 5888 5887 5886 5885 5884 5883 5882 5881 5881 5880 5879 5879 5878 5877 5876 5876 5875 5874
5892 5893 5893 5894 5894 5894 5895 5896 5897 5896 5896 5896 5896 5896 5895 5895 5895 5895 5895 5895 5895 5894 5894 5893 5893 5892 5891 5891 5890 5889 5888 5887 5886 5885 5884 5883 5882 5881 5881 5880 5879 5878 5877 5877 5876 5874 5874 5873 5872
5890 5890 5890 5891 5891 5892 5893 5893 5895 5895 5894 5894 5894 5894 5894 5894 5894 5894 5894 5894 5894 5894 5893 5893 5892 5892 5891 5890 5889 5889 5888 5886 5885 5884 5884 5883 5882 5881 5880 5879 5878 5877 5876 5875 5874 5872 5871 5870 5869
5886 5888 5888 5888 5889 5890 5890 5890 5892 5892 5892 5892 5892 5892 5892 5893 5893 5893 5893 5893 5893 5893 5892 5892 5891 5891 5890 5889 5888 5888 5887 5885 5884 5884 5883 5882 5881 5880 5879 5878 5877 5876 5874 5873 5872 5870 5869 5868 5866
5882 5884 5885 5885 5886 5887 5887 5887 5889 5889 5889 5888 5889 5889 5890 5891 5891 5892 5892 5892 5892 5891 5891 5890 5890 5889 5889 5888 5887 5886 5885 5884 5883 5882 5881 5880 5879 5879 5877 5876 5875 5874 5872 5871 5869 5868 5867 5865 5864
5878 5880 5881 5882 5882 5882 5883 5884 5884 5885 5885 5885 5886 5887 5888 5889 5889 5889 5890 5890 5890 5890 5889 5889 5888 5887 5887 5886 5885 5884 5883 5882 5881 5880 5880 5879 5878 5877 5876 5874 5873 5872 5870 5869 5867 5865 5864 5863 5861
5874 5876 5876 5877 5877 5877 5879 5880 5881 5881 5882 5882 5883 5884 5885 5886 5887 5887 5887 5887 5887 5887 5887 5886 5886 5885 5884 5883 5882 5880 5879 5879 5879 5878 5877 5877 5876 5875 5873 5872 5871 5869 5868 5866 5864 5863 5861 5860 5859
5870 5871 5871 5872 5873 5874 5874 5878 5878 5878 5879 5880 5881 5881 5882 5883 5884 5884 5885 5885 5885 5885 5884 5884 5883 5882 5881 5880 5879 5878 5877 5876 5876 5876 5875 5874 5873 5872 5870 5869 5868 5866 5865 5863 5861 5860 5858 5857 5856
5864 5865 5867 5868 5869 5869 5870 5875 5874 5875 5875 5876 5877 5878 5879 5880 5881 5881 5882 5882 5881 5881 5881 5880 5880 5879 5878 5877 5876 5875 5874 5874 5873 5872 5872 5871 5869 5868 5867 5866 5865 5863 5862 5860 5859 5857 5856 5854 5852
Wind_Speed
13 14 14 15 17 16 16 16 15 14 14 13 12 11 11 10 9 8 8 8 7 6 6 6 6 7 7 7 7 7 7 8 9 10 10 10 10 10 9 9 9 9 9 9 8 8 7 7 7
14 14 15 16 17 17 17 17 16 15 14 14 13 12 11 10 10 9 8 8 7 6 6 7 7 7 7 7 7 8 8 9 9 10 11 10 10 10 10 10 9 9 9 9 8 8 8 7 7
15 15 15 17 17 17 17 17 16 15 14 13 13 12 11 10 9 9 8 8 7 7 6 7 8 8 8 7 7 8 9 9 9 10 10 9 10 10 10 9 9 8 9 8 8 8 7 7 7
15 15 15 16 18 18 17 16 16 16 14 13 13 12 12 11 10 9 9 8 8 7 7 8 9 9 9 8 8 8 8 8 8 8 9 9 9 9 9 9 8 8 8 8 7 7 6 6 7
15 14 15 16 17 18 17 16 16 16 15 13 12 12 12 11 10 9 9 9 8 8 8 8 9 9 8 8 8 9 9 9 9 8 8 8 8 9 9 9 8 8 7 7 7 6 6 5 5
14 15 15 16 17 17 17 17 17 16 15 14 12 12 12 11 11 10 10 10 9 9 9 9 9 9 9 9 9 9 9 8 8 9 9 8 8 8 9 8 8 8 7 7 7 6 5 4 4
14 15 15 16 17 17 17 16 16 16 15 14 12 11 11 11 11 10 10 10 10 10 10 10 9 9 10 9 10 10 10 9 9 9 8 8 8 9 8 7 8 8 8 7 6 5 4 4 3
13 13 14 15 16 17 16 16 16 15 14 14 13 12 11 11 10 10 10 10 10 11 11 11 10 10 10 10 9 9 10 9 9 8 8 8 8 9 8 7 7 7 7 7 6 5 4 3 3
12 12 13 14 15 16 16 16 16 14 13 13 13 13 12 11 11 11 10 11 11 11 12 11 10 10 10 10 10 9 9 8 8 7 8 7 8 8 7 6 6 6 7 6 5 5 5 4 3
11 11 12 13 14 15 16 16 15 14 13 13 13 12 12 11 11 10 10 11 11 11 11 10 10 10 10 10 10 9 9 8 7 7 7 7 6 7 7 6 6 6 6 6 5 5 5 4 3
9 10 11 11 13 14 15 15 15 14 13 13 13 12 12 12 11 10 10 11 11 11 11 10 10 10 9 9 8 8 8 7 6 6 6 6 5 6 6 6 6 5 5 6 6 6 5 5 4
7 8 9 10 11 12 13 14 15 14 14 13 13 12 12 12 11 10 10 11 11 11 11 11 11 10 9 9 8 8 7 6 6 5 5 4 4 5 5 6 6 5 5 5 6 6 5 5 5
6 6 7 8 10 11 11 12 13 13 13 13 12 11 11 11 11 10 10 11 11 11 11 11 10 10 9 8 8 8 6 5 4 5 4 3 3 3 3 5 6 6 6 6 6 6 6 6 6
4 4 5 7 8 9 9 10 11 12 12 12 11 10 10 11 11 11 11 11 10 10 11 10 10 9 9 9 8 7 6 5 4 4 3 3 2 2 3 4 5 6 6 6 7 7 7 7 7
2 2 3 5 7 8 7 8 9 11 11 11 11 10 10 10 10 10 10 10 10 10 10 9 9 8 8 8 7 7 6 5 5 4 3 2 1 2 2 3 4 4 5 6 8 8 8 8 7
1 1 2 3 5 5 6 7 8 9 10 10 10 9 9 9 9 9 9 9 9 9 9 9 8 8 7 8 8 7 6 5 5 4 3 2 1 1 2 3 3 4 5 6 7 7 7 7 7
3 3 1 1 2 2 4 5 6 7 8 8 8 8 8 8 8 8 8 8 8 8 8 8 8 8 8 8 7 6 6 5 4 4 3 3 3 2 1 2 2 3 3 4 5 5 6 6 7
4 4 3 2 1 1 1 2 3 4 5 6 6 6 6 6 7 7 7 7 7 8 8 8 8 7 7 7 7 7 6 5 4 3 3 3 3 3 3 1 2 3 3 4 4 5 6 6 7
5 5 5 4 3 3 2 2 2 2 2 3 4 4 4 5 6 6 6 6 6 6 7 7 6 6 6 6 6 6 6 5 4 4 3 3 3 3 3 2 3 3 4 4 5 6 6 7 6
7 6 6 6 5 5 5 4 3 2 2 1 2 3 3 3 5 5 5 4 5 5 6 6 6 5 5 5 5 5 5 5 5 5 4 4 3 3 2 2 3 4 5 6 6 7 8 8 9
9 8 8 8 8 8 7 5 4 4 3 2 1 1 1 3 3 4 4 4 4 4 5 5 5 5 5 5 5 5 5 5 5 4 4 4 4 3 3 3 4 4 5 6 7 8 9 9 10
10 10 11 11 10 9 9 8 5 5 5 5 3 2 1 1 3 2 2 2 2 2 3 4 5 5 5 5 4 5 5 5 5 5 5 5 4 3 4 5 5 5 5 6 8 9 9 10 10
11 13 13 12 12 11 10 9 7 7 7 7 6 4 2 2 2 3 2 1 0 1 1 3 4 4 5 5 4 5 5 5 5 5 5 5 5 4 5 6 6 6 6 7 9 10 10 10 10
13 14 14 14 14 13 11 11 9 8 8 8 8 6 4 3 3 4 3 2 1 2 2 2 3 3 4 5 5 5 5 6 6 6 6 6 6 6 6 6 7 7 8 9 10 10 11 11 12
16 16 16 16 16 14 13 13 11 10 10 9 9 8 6 6 5 5 5 4 3 3 3 3 3 4 5 5 5 6 7 7 7 7 7 7 7 7 7 7 8 8 9 10 10 11 11 12 13
17 18 19 19 18 16 15 14 13 12 12 10 10 9 8 7 7 6 6 5 5 5 5 5 5 5 5 6 6 7 7 8 8 8 9 9 8 9 9 9 9 10 11 11 11 11 12 12 12
19 19 20 21 20 19 17 15 14 14 13 12 11 11 10 9 9 8 7 7 6 6 6 7 7 7 7 8 8 9 8 9 9 9 10 10 10 10 10 11 11 11 12 12 12 12 12 13 13
21 21 21 21 21 20 18 16 15 14 14 13 12 12 11 9 9 9 8 8 8 8 8 9 8 8 9 10 10 10 11 11 10 10 10 11 11 11 12 12 13 13 13 13 13 12 13 13 12
23 22 22 22 22 21 21 18 16 14 14 14 12 12 11 10 9 9 10 10 10 10 10 10 10 10 10 11 11 11 11 12 12 12 12 12 12 12 13 14 14 14 14 14 13 12 13 13 13
24 24 23 23 23 23 22 19 17 16 15 15 14 13 13 12 11 12 12 12 12 12 11 11 11 11 12 12 12 12 12 13 14 14 13 13 14 14 14 15 15 15 15 14 14 14 14 14 14
Wind_Direction
71 69 70 72 69 70 70 67 65 64 63 62 62 62 64 63 66 70 74 73 73 75 74 82 88 92 98 100 106 115 122 125 129 129 130 131 134 136 133 136 135 130 130 132 136 141 145 149 146
72 74 75 73 69 69 68 66 63 62 61 60 59 59 60 60 65 72 75 76 72 71 74 84 87 88 91 94 100 111 116 120 125 127 130 131 130 132 132 130 132 136 136 132 132 138 139 141 149
73 74 78 74 70 69 67 66 60 59 58 58 57 56 56 58 64 71 74 74 71 68 74 85 87 89 94 98 101 109 115 117 123 129 135 134 132 135 135 136 138 138 138 138 133 130 134 144 156
73 77 79 74 71 69 66 65 62 58 56 57 57 55 53 54 61 69 74 75 75 73 76 83 86 84 93 95 97 106 111 118 124 131 139 139 139 139 139 137 134 134 132 134 135 136 139 138 151
74 78 78 75 70 66 63 62 61 58 55 54 55 54 54 56 61 69 74 78 82 81 81 86 88 88 92 95 101 103 106 114 121 131 138 143 145 146 139 136 140 139 136 137 139 141 145 146 144
76 77 77 73 67 64 62 61 60 57 53 49 51 56 60 60 65 71 76 80 82 84 86 85 90 92 95 98 104 108 106 110 115 126 134 141 145 152 143 138 142 144 140 140 144 146 144 146 147
76 78 75 72 66 62 61 61 58 54 50 47 52 57 60 62 65 71 77 80 83 85 87 88 90 93 95 102 112 114 109 110 113 117 126 138 146 155 150 147 145 145 144 143 147 148 150 157 165
78 78 75 70 64 60 60 60 57 53 48 46 49 52 61 63 67 71 75 81 85 86 85 86 88 93 98 99 108 115 115 115 113 115 123 130 140 149 153 153 150 153 155 154 157 162 168 175 187
77 76 73 69 62 59 58 58 57 54 49 47 49 52 57 62 70 74 77 82 85 88 88 85 86 92 99 102 104 110 115 114 112 116 121 126 137 146 154 152 154 161 165 167 175 181 186 191 194
76 74 71 67 64 60 60 60 57 54 50 50 52 52 56 62 71 77 79 81 84 86 84 84 85 86 91 97 104 109 113 112 110 111 112 117 129 144 157 159 163 168 173 180 187 192 194 198 207
74 69 67 65 63 63 62 61 57 56 54 52 50 52 56 64 73 79 80 80 81 83 83 85 86 88 89 92 95 107 114 113 111 110 111 119 128 142 158 168 177 184 186 191 195 200 206 215 228
82 74 69 66 66 63 62 63 57 57 54 52 51 58 58 65 73 79 80 81 82 84 83 83 85 87 88 88 91 104 113 116 116 118 123 133 140 148 163 179 187 196 205 210 209 214 215 223 235
90 79 76 72 68 62 61 60 58 58 55 52 54 59 61 65 73 78 82 85 84 83 81 81 82 80 85 86 86 91 93 103 107 121 127 137 150 164 184 198 205 211 221 226 226 231 232 233 242
85 74 72 69 64 59 55 59 61 58 58 52 51 58 65 68 72 76 81 85 84 82 81 80 78 77 78 80 82 86 82 83 109 109 108 116 132 166 200 214 217 223 229 232 237 241 239 245 250
77 73 75 70 65 56 52 57 59 55 57 54 53 58 63 67 71 72 76 81 82 82 81 78 76 74 74 75 79 83 84 90 90 106 108 108 138 179 212 220 224 227 227 234 243 243 247 252 254
209 185 96 78 70 55 48 59 56 50 53 55 55 57 62 64 67 70 74 77 79 80 78 77 75 74 75 74 74 78 80 88 89 81 74 61 98 186 232 226 225 234 240 246 249 250 246 253 256
219 231 245 80 56 44 43 50 51 46 49 54 54 57 65 68 69 72 73 73 74 74 73 73 73 73 74 72 70 71 71 77 83 70 55 40 20 16 318 257 242 248 255 258 258 253 249 255 262
230 238 254 264 286 330 11 35 45 41 41 44 49 56 63 73 76 75 75 73 70 68 67 70 72 71 67 63 61 59 59 60 64 51 43 39 21 9 2 299 253 257 268 279 278 275 273 272 275
238 245 255 257 253 266 279 307 351 9 15 40 39 48 64 81 89 86 85 80 72 63 60 61 64 65 60 56 54 50 50 51 45 29 14 18 10 7 358 331 293 281 284 288 290 287 287 288 284
235 243 253 257 256 265 273 278 294 313 326 38 45 45 66 76 88 94 91 84 76 63 58 57 56 53 51 49 45 41 39 38 32 27 16 13 9 1 345 326 315 306 293 286 290 292 287 286 289
236 245 251 254 257 261 263 266 273 274 279 286 300 11 55 83 99 99 88 78 74 66 62 55 48 43 39 35 29 29 24 18 17 18 12 5 359 351 343 329 318 311 303 294 294 296 293 287 285
241 247 254 254 257 261 263 264 267 265 268 271 270 286 297 110 126 122 105 79 68 66 70 56 44 38 31 24 20 17 15 11 5 1 360 358 353 351 340 326 323 317 310 305 303 300 298 293 287
249 248 250 252 254 259 263 267 265 265 267 267 265 269 266 235 187 171 166 140 45 349 8 37 31 27 18 11 8 2 357 353 351 350 350 352 345 336 331 332 323 319 314 313 309 306 303 299 296
246 249 249 251 254 257 262 265 264 268 269 268 262 256 260 241 215 203 198 218 262 272 299 335 3 2 360 2 360 350 340 335 341 340 344 344 338 331 323 323 324 322 318 316 311 307 303 300 300
246 250 252 253 257 259 262 265 265 264 263 263 257 247 247 238 235 229 224 228 245 253 268 294 317 329 337 337 334 333 330 331 335 335 335 336 333 331 324 321 318 317 317 316 311 308 306 304 304
247 249 254 258 261 260 260 263 267 265 261 258 253 242 240 241 238 232 230 233 245 255 265 280 288 299 308 310 309 312 321 326 325 323 324 326 323 320 318 315 313 311 312 312 310 306 305 305 305
247 249 252 257 260 262 262 265 267 265 261 254 250 244 243 246 243 237 237 241 251 261 267 271 277 285 293 297 297 298 303 308 310 311 314 314 314 314 314 314 313 311 311 310 309 305 304 305 305
247 250 252 255 259 263 264 267 270 267 260 252 248 244 246 249 248 246 247 250 255 261 267 273 277 283 286 289 292 295 295 295 297 302 304 304 306 309 311 311 310 310 310 310 306 303 303 302 304
245 247 251 254 258 264 266 268 269 268 258 253 251 251 249 250 248 249 253 257 260 261 266 272 276 278 282 286 289 294 292 292 292 296 298 297 298 302 306 308 309 308 307 306 306 303 305 302 301
246 249 250 252 257 262 267 267 266 264 259 251 248 250 252 254 252 256 259 260 262 263 266 270 274 276 279 282 284 287 289 290 292 293 295 294 294 294 298 302 304 306 306 305 304 305 306 304 303